Content
SEND FEEDBACK

Daily
Averages
Monthly
Summary
Germany

LUBECK, GERMANY


Home > Europe > Germany
Elevation: 56 feet     Latitude: 54 00N     Longitude: 011 12E

WEATHER
 
SELECT A DAY
Number of Records: 60,294;   Date Range: 7/3/96 - 9/15/14
 
SHARE

PRINT THIS DATA

[ ← Previous Day ]
WEATHER ALMANAC - JANUARY 31, 2013
[ Next Day → ]
[ °C ]   °F
Weather ElementAverageHighLow
Temperature42.9 °F44.6 °F (12:20 pm)41 °F (6:50 pm)
Dewpoint37 °F39.2 °F (1:50 pm)33.8 °F (9:50 am)
Humidity79.9 %93 % (6:50 pm)70 % (9:50 am)
Barometer29.57 in29.65 in (8:20 am)29.47 in (4:50 pm)
Wind Speed23.7 mph33.4 mph (7:20 am)
Wind Gust50.6 mph (7:20 am)
Weather ElementAverage
Visibility6.1 mi
Wind DirectionWSW (254.4 °)

Weather ElementTotal
Precipitation---
Heating Degree Days22.2 (Base 65)
Averaged from 25 records on January 31, 2013
WEATHER CONDITIONS BREAKOUT
WIND DIRECTION BREAKOUT
WEATHER BY HOUR - JANUARY 31, 2013
[ °C ]   °F
Local TimeTemperatureDewpointHumidityBarometerVisibilityWind DirectionWind SpeedGust SpeedPrecipitationEventsConditions
7:20 AM42.8 °F35.6 °F76 %29.62 in6.2 miWest (270°)33.4 mph50.6 mphMostly Cloudy
7:50 AM42.8 °F35.6 °F76 %29.62 in6.2 miWest (270°)32.2 mph48.3 mphMostly Cloudy
8:20 AM42.8 °F35.6 °F76 %29.65 in6.2 miWest (270°)33.4 mph48.3 mphMostly Cloudy
8:50 AM42.8 °F35.6 °F76 %29.65 in6.2 miWest (270°)26.5 mphMostly Cloudy
9:20 AM42.8 °F35.6 °F76 %29.65 in6.2 miWest (260°)28.8 mph40.3 mphMostly Cloudy
9:50 AM42.8 °F33.8 °F70 %29.65 in6.2 miWest (270°)24.2 mph41.4 mphMostly Cloudy
10:20 AM42.8 °F33.8 °F70 %29.65 in6.2 miWest (260°)25.3 mph40.3 mphMostly Cloudy
10:50 AM42.8 °F35.6 °F76 %29.65 in6.2 miWest (260°)20.7 mphMostly Cloudy
11:20 AM42.8 °F35.6 °F76 %29.65 in6.2 miWSW (250°)21.9 mphMostly Cloudy
11:50 AM42.8 °F35.6 °F76 %29.65 in6.2 miWSW (250°)25.3 mph36.8 mphMostly Cloudy
12:20 PM44.6 °F35.6 °F71 %29.62 in6.2 miWSW (240°)24.2 mphMostly Cloudy
12:50 PM44.6 °F35.6 °F71 %29.62 in6.2 miWSW (250°)26.5 mph38.0 mphMostly Cloudy
1:20 PM44.6 °F37.4 °F76 %29.59 in6.2 miWSW (240°)19.6 mphMostly Cloudy
1:50 PM44.6 °F39.2 °F81 %29.56 in6.2 miSW (230°)20.7 mphMostly Cloudy
2:20 PM42.8 °F37.4 °F81 %29.53 in5.0 miWSW (240°)20.7 mphRainLight Rain
2:50 PM42.8 °F39.2 °F87 %29.50 in6.2 miSW (230°)20.7 mph32.2 mphRainLight Rain Showers
3:20 PM42.8 °F39.2 °F87 %29.50 in6.2 miWSW (240°)24.2 mph35.7 mphRainLight Rain Showers
3:50 PM42.8 °F39.2 °F87 %29.50 in6.2 miWSW (250°)24.2 mph35.7 mphMostly Cloudy
4:20 PM42.8 °F39.2 °F87 %29.50 in6.2 miWSW (240°)21.9 mphRainLight Rain
4:50 PM42.8 °F37.4 °F81 %29.47 in6.2 miWSW (250°)21.9 mph34.5 mphMostly Cloudy
5:20 PM42.8 °F39.2 °F87 %29.47 in6.2 miWSW (250°)15.0 mphRainRain Showers
5:50 PM42.8 °F39.2 °F87 %29.47 in5.6 miWest (260°)18.4 mphRainRain
6:20 PM42.8 °F39.2 °F87 %29.47 in6.2 miWest (260°)18.4 mph29.9 mphMostly Cloudy
6:50 PM41.0 °F39.2 °F93 %29.50 in5.6 miWest (280°)23.0 mph41.4 mphMostly Cloudy
7:20 PM41.0 °F37.4 °F87 %29.47 in5.0 miWest (270°)20.7 mph32.2 mphRainRain
Hourly data recorded from EDHL, located miles away from Lubeck, Germany







STORIES FROM OUR PARTNERS